Weather History for Grants-Milan, NM

Change the Weather History Date:

Sunday, December 1, 2013

  Actual Average Record
Temperature  
Mean Temperature 36 °F -  
Max Temperature 49 °F 48 °F 64 °F (1966)
Min Temperature 23 °F 16 °F -6 °F (2006)
Degree Days  
Heating Degree Days 29    
Moisture  
Dew Point 28 °F    
Average Humidity 83    
Maximum Humidity 99    
Minimum Humidity 48    
Precipitation  
Precipitation 0.00 in - - ()
Sea Level Pressure  
Sea Level Pressure 30.32 in    
Wind  
Wind Speed 8 mph (NW)    
Max Wind Speed 15 mph    
Max Gust Speed 22 mph    
Averages and records for this station are not official NWS values.
T = Trace of Precipitation, MM = Missing Value Source: NWS Daily Summary

Daily Weather History Graph

Daily Weather History Graph

Search for Another Location

Airport:

Trip Planner

Search our weather history database for the weather conditions in past years. The results will help you decide how hot, cold, wet, or windy it might be!

Date:

Astronomy

Dec. 01, 2013 Rise Set
Actual Time 7:01 AM MST 4:59 PM MST
Civil Twilight 6:34 AM MST 5:27 PM MST
Nautical Twilight 6:02 AM MST 5:58 PM MST
Astronomical Twilight 5:32 AM MST 6:29 PM MST
Moon 5:26 AM MST (12/1) 4:09 PM MST (12/1)
Length of Visible Light 10h 53m
Length of Day
9h 57m
Waning Crescent, 2% of the Moon is Illuminated
Dec 1
Waning Crescent
Dec 2
New
Dec 9
First Quarter
Dec 17
Full
Dec 25
Last Quarter

Hourly Weather History & Observations

Time (MST) Temp. Windchill Dew Point Humidity Pressure Visibility Wind Dir Wind Speed Gust Speed Precip Events Conditions
12:15 AM 28.2 °F 18.9 °F 27.3 °F 96% 30.33 in - NW 10.4 mph - N/A   Unknown
12:35 AM 28.4 °F 21.2 °F 27.3 °F 96% 30.32 in - NW 6.9 mph - N/A   Unknown
12:55 AM 27.3 °F 20.9 °F 26.2 °F 96% 30.32 in - NW 5.8 mph - N/A   Unknown
1:15 AM 26.6 °F 19.1 °F 25.7 °F 96% 30.32 in - NW 6.9 mph - N/A   Unknown
1:35 AM 26.6 °F 18.2 °F 25.7 °F 96% 30.32 in - NW 8.1 mph - N/A   Unknown
1:55 AM 26.4 °F 19.8 °F 25.5 °F 96% 30.32 in - NW 5.8 mph - N/A   Unknown
2:15 AM 27.3 °F 19.1 °F 26.2 °F 96% 30.32 in - NW 8.1 mph - N/A   Unknown
2:35 AM 26.8 °F 21.4 °F 25.5 °F 95% 30.32 in - NNW 4.6 mph - N/A   Unknown
2:55 AM 26.6 °F 21.2 °F 25.7 °F 96% 30.32 in - NNW 4.6 mph - N/A   Unknown
3:15 AM 25.2 °F 17.3 °F 24.3 °F 96% 30.32 in - NW 6.9 mph - N/A   Unknown
3:35 AM 26.6 °F 15.7 °F 25.7 °F 96% 30.32 in - NW 12.7 mph - N/A   Unknown
3:55 AM 26.6 °F 18.2 °F 25.3 °F 95% 30.31 in - NW 8.1 mph - N/A   Unknown
4:15 AM 25.5 °F 16.9 °F 24.4 °F 96% 30.32 in - NW 8.1 mph - N/A   Unknown
4:35 AM 24.4 °F 16.5 °F 23.5 °F 96% 30.32 in - NW 6.9 mph - N/A   Unknown
4:55 AM 24.8 °F 16.9 °F 23.7 °F 96% 30.32 in - NW 6.9 mph - N/A   Unknown
5:15 AM 23.7 °F 15.6 °F 22.8 °F 96% 30.32 in - NNW 6.9 mph - N/A   Unknown
5:35 AM 24.4 °F 15.6 °F 23.4 °F 96% 30.32 in - NW 8.1 mph - N/A   Unknown
5:55 AM 24.6 °F 16.7 °F 23.5 °F 96% 30.33 in - NW 6.9 mph - N/A   Unknown
6:15 AM 24.4 °F 16.5 °F 23.0 °F 94% 30.33 in - WNW 6.9 mph - N/A   Unknown
6:35 AM 24.1 °F 17.0 °F 22.8 °F 95% 30.35 in - WNW 5.8 mph - N/A   Unknown
6:55 AM 25.3 °F 17.6 °F 24.4 °F 96% 30.35 in - WNW 6.9 mph - N/A   Unknown
7:15 AM 25.2 °F 19.5 °F 23.7 °F 94% 30.34 in - NNW 4.6 mph - N/A   Unknown
7:35 AM 25.7 °F 19.0 °F 24.4 °F 95% 30.35 in - NW 5.8 mph - N/A   Unknown
7:55 AM 27.0 °F 18.7 °F 25.7 °F 95% 30.37 in - NW 8.1 mph - N/A   Unknown
8:15 AM 28.8 °F 20.9 °F 27.5 °F 95% 30.37 in - NW 8.1 mph - N/A   Unknown
8:35 AM 28.9 °F 21.1 °F 27.3 °F 94% 30.38 in - NW 8.1 mph - N/A   Unknown
8:55 AM 30.0 °F 23.2 °F 28.2 °F 93% 30.38 in - NNW 6.9 mph - N/A   Unknown
9:15 AM 31.5 °F 25.8 °F 29.3 °F 92% 30.38 in - NNW 5.8 mph - N/A   Unknown
9:35 AM 32.7 °F 26.4 °F 30.6 °F 92% 30.38 in - NW 6.9 mph - N/A   Unknown
9:55 AM 34.0 °F 28.8 °F 31.3 °F 90% 30.38 in - NNW 5.8 mph - N/A   Unknown
10:15 AM 35.1 °F 28.6 °F 31.3 °F 86% 30.38 in - NNW 8.1 mph - N/A   Unknown
10:35 AM 36.5 °F 31.0 °F 32.0 °F 84% 30.38 in - North 6.9 mph - N/A   Unknown
10:55 AM 37.9 °F 32.1 °F 32.0 °F 79% 30.37 in - North 8.1 mph - N/A   Clear
11:15 AM 41.0 °F 36.4 °F 32.5 °F 72% 30.36 in - NNW 6.9 mph - N/A   Clear
11:35 AM 41.7 °F 36.7 °F 32.7 °F 70% 30.35 in - NNW 8.1 mph - N/A   Clear
11:55 AM 43.7 °F 38.6 °F 32.9 °F 66% 30.34 in - North 9.2 mph - N/A   Clear
12:15 PM 45.5 °F 39.6 °F 33.3 °F 62% 30.33 in - NNW 12.7 mph - N/A   Clear
12:35 PM 46.2 °F 40.8 °F 32.0 °F 58% 30.32 in - North 11.5 mph - N/A   Clear
12:55 PM 47.1 °F - 32.0 °F 56% 30.32 in - North 8.1 mph - N/A   Clear
1:15 PM 48.7 °F - 31.3 °F 51% 30.30 in - NNW 9.2 mph - N/A   Clear
1:35 PM 48.7 °F - 30.0 °F 48% 30.29 in - North 11.5 mph 17.3 mph N/A   Clear
1:55 PM 49.3 °F - 30.6 °F 49% 30.29 in - North 13.8 mph 19.6 mph N/A   Clear
2:15 PM 49.1 °F - 32.0 °F 52% 30.29 in - North 15.0 mph 19.6 mph N/A   Clear
2:35 PM 48.2 °F - 31.6 °F 53% 30.29 in - NNW 11.5 mph 21.9 mph N/A   Clear
2:55 PM 47.8 °F - 31.3 °F 53% 30.29 in - North 8.1 mph - N/A   Clear
3:15 PM 47.5 °F - 30.2 °F 51% 30.29 in - North 11.5 mph - N/A   Clear
3:35 PM 47.1 °F - 28.8 °F 49% 30.29 in - North 10.4 mph - N/A   Clear
3:55 PM 46.2 °F 40.8 °F 28.0 °F 49% 30.28 in - North 11.5 mph - N/A   Clear
4:15 PM 45.0 °F 39.3 °F 27.1 °F 50% 30.28 in - North 11.5 mph - N/A   Clear
4:35 PM 43.7 °F 38.1 °F 27.9 °F 54% 30.28 in - North 10.4 mph - N/A   Clear
4:55 PM 41.5 °F 38.6 °F 29.3 °F 62% 30.28 in - North 4.6 mph - N/A   Clear
5:15 PM 36.9 °F 32.2 °F 27.9 °F 70% 30.28 in - West 5.8 mph - N/A   Clear
5:35 PM 38.1 °F 34.6 °F 28.4 °F 68% 30.29 in - NNW 4.6 mph - N/A   Clear
5:55 PM 35.4 °F 30.5 °F 27.5 °F 73% 30.28 in - NW 5.8 mph - N/A   Clear
6:15 PM 34.0 °F 28.0 °F 27.5 °F 77% 30.29 in - West 6.9 mph - N/A   Clear
6:35 PM 34.2 °F 28.2 °F 29.3 °F 82% 30.29 in - WNW 6.9 mph - N/A   Clear
6:55 PM 32.5 °F 25.5 °F 28.9 °F 87% 30.29 in - NW 8.1 mph - N/A   Unknown
7:15 PM 32.0 °F 25.6 °F 28.8 °F 88% 30.29 in - WNW 6.9 mph - N/A   Unknown
7:35 PM 30.6 °F 21.2 °F 27.9 °F 90% 30.30 in - NW 11.5 mph 16.1 mph N/A   Unknown
7:55 PM 29.7 °F 24.7 °F 27.3 °F 91% 30.30 in - NW 4.6 mph - N/A   Unknown
8:15 PM 29.3 °F 20.8 °F 27.7 °F 94% 30.30 in - NW 9.2 mph - N/A   Unknown
8:35 PM 29.8 °F 21.5 °F 28.2 °F 94% 30.30 in - NW 9.2 mph - N/A   Unknown
8:55 PM 29.1 °F 18.9 °F 28.2 °F 96% 30.31 in - NW 12.7 mph - N/A   Unknown
9:15 PM 29.3 °F 20.2 °F 28.2 °F 96% 30.31 in - NW 10.4 mph 16.1 mph N/A   Unknown
9:35 PM 30.2 °F 21.9 °F 29.8 °F 99% 30.32 in - NW 9.2 mph 16.1 mph N/A   Mostly Cloudy
9:55 PM 30.4 °F 23.6 °F 30.0 °F 99% 30.32 in - NW 6.9 mph - N/A   Overcast
10:15 PM 30.4 °F 23.6 °F 30.0 °F 99% 30.32 in - NW 6.9 mph - N/A   Overcast
10:35 PM 29.7 °F 24.7 °F 29.3 °F 99% 30.32 in - NW 4.6 mph - N/A   Mostly Cloudy
10:55 PM 30.2 °F 25.4 °F 29.8 °F 99% 30.32 in - NW 4.6 mph - N/A   Overcast
11:15 PM 30.2 °F 25.4 °F 29.7 °F 98% 30.31 in - NNW 4.6 mph - N/A   Overcast
11:35 PM 30.0 °F 24.1 °F 29.1 °F 96% 30.30 in - North 5.8 mph - N/A   Overcast
11:55 PM 29.3 °F 24.3 °F 28.4 °F 96% 30.30 in - NW 4.6 mph - N/A   Overcast